SCP
0 0 -0 0 -0 -0 -0 -0 -0 -0 0 0 0 0 -0 -0 -0 -0 0 0 0 0 0 -0 -0 -0 0 0 0 0 0 0 0 0 0 0 -0 -0 -0 -0 -0 -0 -0
0 0 0 0 0 0 0 0 0 0 0 0 0 0 0 0 0 0 0 0 0 0 0 0 0 -0 0 0 0 0 0 0 0 0 0 0 0 0 -0 -0 -0 -0 -0
-0 -0 0 0 0 0 0 0 0 0 0 0 0 0 0 0 0 0 0 0 -0 -0 0 0 0 0 0 0 0 0 0 0 0 0 0 0 0 0 -0 -0 -0 -0 -0
-0 -0 0 0 0 0 0 0 0 0 0 0 0 0 0 0 0 0 0 0 0 -0 -0 0 0 0 0 0 0 0 0 0 0 0 -0 0 0 0 -0 -0 -0 -0 -0
-0 -0 -0 0 0 0 0 0 0 -0 0 0 0 0 0 0 0 0 0 0 0 0 0 0 0 0 0 0 0 0 0 0 0 0 0 0 0 0 0 0 0 0 -0
0 -0 -0 0 0 0 0 0 0 0 0 0 0 0 0 0 0 0 0 0 0 0 0 0 0 0 0 0 0 0 0 0 0 0 0 0 0 0 0 0 0 0 0
0 -0 -0 -0 0 0 0 0 0 0 0 0 0 0 0 0 0 0 0 0 0 0 0 0 0 0 0 0 0 0 0 0 0 0 0 0 0 0 0 0 0 0 0
-0 -0 0 0 0 0 0 0 0 0 0 0 0 0 0 0 0 0 0 0 0 0 0 0 0 0 0 0 0 0 1 0 0 0 0 0 1 1 0 0 0 0 0
0 0 -0 0 0 0 0 0 0 0 0 0 0 0 0 0 0 0 0 0 0 0 0 0 0 0 0 0 0 0 0 0 0 0 0 0 1 0 0 0 0 0 0
0 0 0 -0 -0 0 0 0 0 0 0 0 0 0 0 0 -0 0 0 0 0 0 0 0 0 0 0 0 0 0 0 0 0 0 0 0 1 0 0 0 0 0 0
0 0 0 0 0 0 0 0 0 0 0 0 0 0 0 0 0 0 0 0 0 0 0 0 0 0 0 0 0 0 0 0 0 0 0 0 0 0 0 0 0 0 0
0 0 0 0 0 0 0 0 0 0 0 0 0 0 0 0 0 0 0 0 0 0 0 0 0 0 0 0 0 0 0 0 0 0 -0 0 0 0 0 0 0 0 0
0 0 0 0 0 0 0 0 0 0 0 0 0 0 0 0 0 0 0 0 0 0 0 0 0 0 0 0 0 0 0 0 0 0 0 -0 -0 0 -0 0 0 0 0
0 0 0 0 0 0 0 0 0 0 0 0 0 0 0 0 0 0 0 0 0 0 0 0 0 0 0 0 0 0 0 0 0 0 0 -0 -0 0 0 0 -0 0 0
0 0 0 0 0 0 0 0 0 0 0 0 0 0 0 0 0 0 0 0 0 0 0 0 0 0 0 0 0 0 0 0 0 0 1 0 0 0 0 0 -0 0 0
0 0 0 0 0 0 0 0 0 0 0 0 0 0 0 0 0 0 0 0 0 0 0 0 0 0 0 0 0 0 0 0 0 0 0 0 -0 0 0 0 0 -0 0
0 0 0 0 0 0 0 0 0 0 0 0 0 0 0 0 0 0 0 0 0 0 0 0 0 0 0 0 0 0 0 0 0 0 0 0 0 -0 0 0 0 0 0
0 0 0 0 0 0 0 0 0 0 0 0 0 0 0 0 0 0 0 0 0 0 0 0 0 0 0 0 0 0 0 0 0 0 0 0 0 0 0 0 0 0 0
0 0 0 0 0 0 0 0 0 0 0 0 0 0 0 0 0 0 0 0 0 0 0 0 0 -0 -0 -0 0 0 0 0 0 0 0 0 0 0 0 0 0 0 0
0 0 0 0 0 0 0 0 0 0 0 0 0 0 0 0 0 0 0 0 0 0 0 0 0 -0 -0 -0 -0 -0 0 0 0 0 0 0 0 0 0 0 0 0 0
0 0 0 0 0 0 0 0 0 0 0 0 0 0 0 0 0 0 0 0 0 0 0 0 0 0 0 0 0 0 0 -0 0 0 0 0 0 0 0 0 0 0 0
0 0 0 0 0 0 0 0 0 0 0 0 0 0 0 0 0 0 0 0 0 0 0 0 0 0 0 0 0 0 0 0 -0 0 0 0 0 0 0 0 0 0 0
0 0 0 0 0 0 0 0 0 0 0 0 0 0 0 0 0 0 0 0 0 0 0 0 0 0 0 0 0 0 0 0 0 0 0 0 0 0 -0 0 0 0 0
0 0 0 0 0 0 0 0 0 0 0 0 0 0 0 0 0 0 0 0 0 0 0 0 0 0 0 0 0 0 0 0 0 0 0 0 0 0 -0 -0 0 0 0
0 0 0 0 0 0 0 0 0 0 0 0 0 0 0 0 0 0 0 0 0 0 0 0 0 0 0 0 0 0 0 0 0 0 0 -0 -0 0 -0 -0 -0 0 0
0 0 0 0 0 0 0 0 0 0 0 0 0 0 0 0 0 0 0 0 0 0 0 0 0 0 0 0 0 0 0 0 0 0 0 -0 -0 0 -0 -0 -0 0 0
Wind_Speed_500mb
10 17 23 20 18 20 23 24 26 27 26 27 24 24 25 27 25 24 25 26 24 23 20 16 14 14 13 14 15 17 14 10 6 5 7 11 13 16 16 14 16 12 13
7 15 18 19 14 13 16 17 24 27 25 27 30 27 25 26 27 27 24 24 23 23 21 22 18 11 8 12 13 16 16 15 13 13 14 13 12 12 12 12 12 13 17
18 14 19 16 16 16 19 19 22 30 33 34 34 33 32 30 30 27 26 23 21 23 23 19 18 15 7 8 10 14 14 18 16 14 16 16 13 10 8 9 12 13 7
11 17 17 15 15 17 20 24 28 31 34 35 37 38 36 33 33 31 27 28 26 24 23 20 17 15 8 8 7 9 12 15 19 18 14 14 13 6 1 4 7 3 5
14 13 12 16 16 18 23 29 33 37 37 36 36 38 38 37 35 34 32 28 24 23 23 22 20 14 9 8 4 1 6 13 18 13 13 8 2 5 4 6 8 10 18
10 10 16 19 22 24 28 32 35 35 35 35 36 35 36 41 37 34 32 29 27 23 20 18 17 16 12 10 7 5 5 8 13 11 14 7 4 8 8 9 15 20 22
15 18 21 21 22 24 28 31 33 34 34 35 34 34 34 35 38 33 36 33 27 22 20 18 13 12 10 13 13 9 11 16 16 15 12 13 15 18 14 20 25 30 28
15 19 25 23 25 28 30 31 31 30 28 28 28 27 27 26 26 26 28 29 26 24 19 17 14 10 10 11 14 17 17 22 19 20 21 18 18 20 21 28 31 31 24
22 20 23 23 21 25 28 24 23 21 22 22 21 18 20 21 14 18 17 19 18 19 19 17 14 12 10 11 15 23 29 29 26 22 33 29 29 27 26 27 32 26 27
29 23 22 20 17 20 24 18 13 14 17 20 20 18 13 13 11 9 12 13 14 15 16 17 18 16 15 14 18 24 28 30 32 32 35 44 38 27 26 32 34 32 29
33 32 33 32 22 17 15 12 8 8 13 19 22 22 20 17 15 8 9 5 4 5 7 13 13 21 22 21 13 16 26 27 32 32 36 32 43 43 29 42 31 35 30
34 39 36 42 32 20 13 6 3 9 15 22 27 31 30 30 30 28 20 17 13 7 5 7 6 6 12 18 15 16 27 28 29 32 30 23 32 23 28 36 38 35 28
39 34 38 30 26 19 10 4 4 14 21 24 28 32 32 30 30 27 25 22 21 22 21 17 13 15 13 10 12 19 27 35 34 30 34 34 34 41 30 39 41 36 31
37 38 31 27 22 19 13 6 11 15 20 24 28 30 29 29 29 27 25 23 22 24 24 25 21 14 16 18 15 11 26 32 36 38 41 45 42 44 37 39 45 41 37
37 38 33 28 26 21 15 14 15 16 20 24 25 26 25 27 26 26 24 23 23 24 26 26 25 23 21 20 23 24 18 21 32 38 41 50 55 46 41 43 44 48 47
40 40 38 35 30 24 22 20 17 18 20 23 24 26 26 27 24 23 22 23 24 29 31 33 33 32 29 27 26 30 34 27 30 42 49 53 53 51 51 51 51 50 49
46 44 40 37 35 31 28 25 21 21 21 23 25 27 28 27 25 26 27 28 32 35 36 36 36 37 37 34 32 30 37 43 43 42 47 51 54 57 58 57 52 49 54
53 48 42 40 37 34 31 28 25 22 22 22 24 26 25 26 24 24 25 26 29 32 34 38 41 43 44 43 45 41 35 41 50 53 52 54 61 59 65 65 59 58 58
56 51 47 44 40 37 34 31 28 24 23 23 24 25 22 24 23 25 26 26 30 36 39 44 43 42 40 44 45 43 44 45 46 59 61 57 56 63 69 75 76 66 59
59 53 49 45 42 39 36 32 28 25 25 24 25 25 22 21 19 22 23 27 31 36 40 43 47 45 45 46 43 48 51 51 45 53 66 69 67 58 66 76 75 79 71
62 56 52 49 47 42 38 31 28 27 25 23 24 21 24 19 20 21 25 26 32 37 38 40 44 47 50 54 60 66 74 51 49 46 66 67 76 75 64 72 84 83 80
62 59 55 52 49 44 37 32 29 27 23 22 21 21 21 18 21 23 24 27 34 37 40 44 44 49 48 51 58 62 59 81 39 55 60 68 63 62 60 61 77 78 89
65 59 56 54 49 45 37 33 30 26 23 20 20 20 16 16 19 21 23 29 33 35 39 39 44 49 51 53 55 57 63 56 80 73 86 76 73 73 69 54 59 76 81
63 54 53 54 51 45 39 36 32 26 22 20 19 17 15 16 16 18 27 31 30 33 37 40 44 45 48 59 63 62 63 59 67 90 75 79 80 68 71 60 55 59 79
60 53 55 56 53 49 43 39 32 27 25 21 19 18 16 17 21 26 30 30 32 35 39 46 45 45 55 59 57 68 69 70 76 68 71 86 90 81 74 79 63 47 61
61 52 54 62 58 49 45 41 35 31 23 23 21 20 19 24 28 33 31 32 34 39 43 45 53 56 54 60 64 67 69 74 78 68 68 77 96 100 79 82 79 71 53
Wind_Direction_500mb
54 48 31 31 53 50 51 45 40 40 57 47 55 61 50 47 47 48 48 46 43 38 35 36 39 37 44 50 60 51 57 61 80 101 96 116 126 126 123 116 119 118 113
107 62 36 17 30 43 41 47 47 49 64 53 51 49 44 37 39 41 39 41 40 38 33 28 20 31 51 50 61 53 52 60 77 90 102 101 117 117 121 122 126 121 113
99 55 32 21 40 52 51 59 57 60 66 63 57 51 44 36 28 30 31 31 35 35 34 33 30 26 20 47 52 49 56 66 73 94 104 111 110 113 118 131 138 130 92
17 30 50 34 48 61 62 67 65 66 65 62 56 53 51 46 40 35 27 22 22 22 21 25 30 32 30 12 44 60 61 78 92 92 92 95 103 94 125 180 161 42 31
17 44 52 58 66 79 86 84 79 75 71 65 57 50 46 43 43 41 37 30 25 20 19 16 14 19 22 359 355 43 80 100 118 119 124 118 115 327 212 207 290 315 311
21 50 82 81 90 93 88 85 80 71 66 61 55 50 49 46 40 40 37 33 29 23 18 17 15 6 352 341 319 277 217 154 156 138 127 169 220 284 277 258 303 305 292
66 75 95 94 95 100 95 87 78 73 68 63 59 57 51 46 37 34 33 30 28 22 18 12 12 355 336 329 317 301 243 220 215 218 185 212 246 261 257 274 292 300 294
109 96 91 102 105 105 100 93 87 81 73 65 59 50 47 44 28 25 27 20 22 23 19 9 8 347 321 305 294 294 284 250 243 238 235 204 226 243 276 280 290 294 281
117 113 100 92 110 114 110 100 90 79 67 58 53 42 33 31 28 9 15 16 18 14 15 10 353 339 309 286 279 285 287 273 258 258 252 238 229 244 268 280 289 285 277
134 127 120 102 103 123 120 111 93 59 47 38 37 31 21 24 6 6 342 3 1 4 8 3 354 345 333 290 279 282 281 270 265 284 251 237 252 244 268 281 279 276 270
167 159 162 151 137 141 142 130 108 34 23 23 25 23 20 18 22 359 340 300 294 325 337 339 347 349 354 341 298 283 288 280 271 266 267 256 239 263 276 274 272 269 261
177 178 185 184 180 178 167 159 63 4 11 12 13 11 13 9 7 12 10 357 357 342 268 285 289 304 335 356 345 300 277 278 270 266 265 255 256 246 273 275 269 259 252
195 194 192 191 186 195 206 230 340 360 3 6 4 5 8 6 3 4 4 2 354 347 345 342 322 301 304 316 337 328 315 290 274 260 251 245 251 266 265 254 261 253 255
204 202 196 199 205 211 226 266 341 350 353 357 359 355 357 356 355 358 1 0 356 352 347 343 337 313 286 280 296 300 312 308 294 272 261 250 268 273 260 253 259 249 241
209 202 204 209 218 228 250 286 318 333 343 346 342 343 348 347 350 354 355 353 353 355 350 350 347 336 315 285 266 281 297 296 292 288 280 272 266 267 252 254 258 244 236
214 211 213 219 224 236 251 272 295 314 327 330 331 336 340 341 348 352 353 353 354 358 356 352 350 345 340 322 297 269 269 269 269 277 281 281 268 262 254 249 255 242 242
221 222 221 225 230 240 257 273 290 304 315 322 327 332 335 341 351 356 357 354 353 354 353 350 347 342 338 331 320 300 274 265 265 267 275 275 275 265 258 246 243 248 240
222 225 227 228 236 247 260 273 287 296 304 315 319 325 331 336 345 351 352 355 354 350 349 345 344 340 336 334 328 322 310 282 270 266 272 271 274 274 257 246 241 248 238
220 224 227 231 240 248 256 268 279 290 296 303 311 320 328 336 336 339 344 347 348 346 345 343 344 342 338 332 332 321 315 304 289 269 268 272 272 265 262 251 245 246 245
224 226 226 231 236 243 253 265 274 279 286 298 310 322 334 334 331 336 340 344 343 340 340 338 338 340 339 338 330 325 318 310 300 284 274 270 268 271 259 263 251 236 243
224 223 226 231 238 244 254 263 269 275 283 296 308 320 329 328 339 341 347 343 337 333 333 332 336 336 336 338 335 327 323 328 310 302 276 280 269 266 268 255 255 256 235
227 225 223 226 235 245 252 260 266 272 283 298 310 318 315 327 339 342 335 336 329 328 331 331 334 329 330 331 330 325 327 318 325 303 296 289 277 272 260 259 252 248 244
228 227 227 229 236 244 249 256 262 269 281 296 301 297 304 312 316 328 330 318 322 323 324 324 324 326 320 322 320 315 316 308 312 314 311 302 302 290 278 264 253 246 240
230 231 227 226 234 242 250 255 260 266 281 291 296 296 291 293 308 309 307 308 310 310 310 313 312 313 308 311 315 311 310 301 305 309 308 304 306 302 292 271 256 247 242
228 231 226 224 233 241 246 254 261 271 280 293 298 292 287 296 302 301 307 306 310 310 306 304 307 303 300 304 304 306 308 300 302 296 298 306 306 297 292 284 277 252 243
226 227 226 225 230 235 240 249 259 267 281 292 294 286 287 291 296 302 310 310 308 305 309 307 300 300 300 300 301 303 300 298 298 290 289 295 300 298 292 289 283 271 248
Wind_Speed_850mb
10 17 23 20 18 20 23 24 26 27 26 27 24 24 25 27 25 24 25 26 24 23 20 16 14 14 13 14 15 17 14 10 6 5 7 11 13 16 16 14 16 12 13
7 15 18 19 14 13 16 17 24 27 25 27 30 27 25 26 27 27 24 24 23 23 21 22 18 11 8 12 13 16 16 15 13 13 14 13 12 12 12 12 12 13 17
18 14 19 16 16 16 19 19 22 30 33 34 34 33 32 30 30 27 26 23 21 23 23 19 18 15 7 8 10 14 14 18 16 14 16 16 13 10 8 9 12 13 7
11 17 17 15 15 17 20 24 28 31 34 35 37 38 36 33 33 31 27 28 26 24 23 20 17 15 8 8 7 9 12 15 19 18 14 14 13 6 1 4 7 3 5
14 13 12 16 16 18 23 29 33 37 37 36 36 38 38 37 35 34 32 28 24 23 23 22 20 14 9 8 4 1 6 13 18 13 13 8 2 5 4 6 8 10 18
10 10 16 19 22 24 28 32 35 35 35 35 36 35 36 41 37 34 32 29 27 23 20 18 17 16 12 10 7 5 5 8 13 11 14 7 4 8 8 9 15 20 22
15 18 21 21 22 24 28 31 33 34 34 35 34 34 34 35 38 33 36 33 27 22 20 18 13 12 10 13 13 9 11 16 16 15 12 13 15 18 14 20 25 30 28
15 19 25 23 25 28 30 31 31 30 28 28 28 27 27 26 26 26 28 29 26 24 19 17 14 10 10 11 14 17 17 22 19 20 21 18 18 20 21 28 31 31 24
22 20 23 23 21 25 28 24 23 21 22 22 21 18 20 21 14 18 17 19 18 19 19 17 14 12 10 11 15 23 29 29 26 22 33 29 29 27 26 27 32 26 27
29 23 22 20 17 20 24 18 13 14 17 20 20 18 13 13 11 9 12 13 14 15 16 17 18 16 15 14 18 24 28 30 32 32 35 44 38 27 26 32 34 32 29
33 32 33 32 22 17 15 12 8 8 13 19 22 22 20 17 15 8 9 5 4 5 7 13 13 21 22 21 13 16 26 27 32 32 36 32 43 43 29 42 31 35 30
34 39 36 42 32 20 13 6 3 9 15 22 27 31 30 30 30 28 20 17 13 7 5 7 6 6 12 18 15 16 27 28 29 32 30 23 32 23 28 36 38 35 28
39 34 38 30 26 19 10 4 4 14 21 24 28 32 32 30 30 27 25 22 21 22 21 17 13 15 13 10 12 19 27 35 34 30 34 34 34 41 30 39 41 36 31
37 38 31 27 22 19 13 6 11 15 20 24 28 30 29 29 29 27 25 23 22 24 24 25 21 14 16 18 15 11 26 32 36 38 41 45 42 44 37 39 45 41 37
37 38 33 28 26 21 15 14 15 16 20 24 25 26 25 27 26 26 24 23 23 24 26 26 25 23 21 20 23 24 18 21 32 38 41 50 55 46 41 43 44 48 47
40 40 38 35 30 24 22 20 17 18 20 23 24 26 26 27 24 23 22 23 24 29 31 33 33 32 29 27 26 30 34 27 30 42 49 53 53 51 51 51 51 50 49
46 44 40 37 35 31 28 25 21 21 21 23 25 27 28 27 25 26 27 28 32 35 36 36 36 37 37 34 32 30 37 43 43 42 47 51 54 57 58 57 52 49 54
53 48 42 40 37 34 31 28 25 22 22 22 24 26 25 26 24 24 25 26 29 32 34 38 41 43 44 43 45 41 35 41 50 53 52 54 61 59 65 65 59 58 58
56 51 47 44 40 37 34 31 28 24 23 23 24 25 22 24 23 25 26 26 30 36 39 44 43 42 40 44 45 43 44 45 46 59 61 57 56 63 69 75 76 66 59
59 53 49 45 42 39 36 32 28 25 25 24 25 25 22 21 19 22 23 27 31 36 40 43 47 45 45 46 43 48 51 51 45 53 66 69 67 58 66 76 75 79 71
62 56 52 49 47 42 38 31 28 27 25 23 24 21 24 19 20 21 25 26 32 37 38 40 44 47 50 54 60 66 74 51 49 46 66 67 76 75 64 72 84 83 80
62 59 55 52 49 44 37 32 29 27 23 22 21 21 21 18 21 23 24 27 34 37 40 44 44 49 48 51 58 62 59 81 39 55 60 68 63 62 60 61 77 78 89
65 59 56 54 49 45 37 33 30 26 23 20 20 20 16 16 19 21 23 29 33 35 39 39 44 49 51 53 55 57 63 56 80 73 86 76 73 73 69 54 59 76 81
63 54 53 54 51 45 39 36 32 26 22 20 19 17 15 16 16 18 27 31 30 33 37 40 44 45 48 59 63 62 63 59 67 90 75 79 80 68 71 60 55 59 79
60 53 55 56 53 49 43 39 32 27 25 21 19 18 16 17 21 26 30 30 32 35 39 46 45 45 55 59 57 68 69 70 76 68 71 86 90 81 74 79 63 47 61
61 52 54 62 58 49 45 41 35 31 23 23 21 20 19 24 28 33 31 32 34 39 43 45 53 56 54 60 64 67 69 74 78 68 68 77 96 100 79 82 79 71 53
Wind_Direction_850mb
54 48 31 31 53 50 51 45 40 40 57 47 55 61 50 47 47 48 48 46 43 38 35 36 39 37 44 50 60 51 57 61 80 101 96 116 126 126 123 116 119 118 113
107 62 36 17 30 43 41 47 47 49 64 53 51 49 44 37 39 41 39 41 40 38 33 28 20 31 51 50 61 53 52 60 77 90 102 101 117 117 121 122 126 121 113
99 55 32 21 40 52 51 59 57 60 66 63 57 51 44 36 28 30 31 31 35 35 34 33 30 26 20 47 52 49 56 66 73 94 104 111 110 113 118 131 138 130 92
17 30 50 34 48 61 62 67 65 66 65 62 56 53 51 46 40 35 27 22 22 22 21 25 30 32 30 12 44 60 61 78 92 92 92 95 103 94 125 180 161 42 31
17 44 52 58 66 79 86 84 79 75 71 65 57 50 46 43 43 41 37 30 25 20 19 16 14 19 22 359 355 43 80 100 118 119 124 118 115 327 212 207 290 315 311
21 50 82 81 90 93 88 85 80 71 66 61 55 50 49 46 40 40 37 33 29 23 18 17 15 6 352 341 319 277 217 154 156 138 127 169 220 284 277 258 303 305 292
66 75 95 94 95 100 95 87 78 73 68 63 59 57 51 46 37 34 33 30 28 22 18 12 12 355 336 329 317 301 243 220 215 218 185 212 246 261 257 274 292 300 294
109 96 91 102 105 105 100 93 87 81 73 65 59 50 47 44 28 25 27 20 22 23 19 9 8 347 321 305 294 294 284 250 243 238 235 204 226 243 276 280 290 294 281
117 113 100 92 110 114 110 100 90 79 67 58 53 42 33 31 28 9 15 16 18 14 15 10 353 339 309 286 279 285 287 273 258 258 252 238 229 244 268 280 289 285 277
134 127 120 102 103 123 120 111 93 59 47 38 37 31 21 24 6 6 342 3 1 4 8 3 354 345 333 290 279 282 281 270 265 284 251 237 252 244 268 281 279 276 270
167 159 162 151 137 141 142 130 108 34 23 23 25 23 20 18 22 359 340 300 294 325 337 339 347 349 354 341 298 283 288 280 271 266 267 256 239 263 276 274 272 269 261
177 178 185 184 180 178 167 159 63 4 11 12 13 11 13 9 7 12 10 357 357 342 268 285 289 304 335 356 345 300 277 278 270 266 265 255 256 246 273 275 269 259 252
195 194 192 191 186 195 206 230 340 360 3 6 4 5 8 6 3 4 4 2 354 347 345 342 322 301 304 316 337 328 315 290 274 260 251 245 251 266 265 254 261 253 255
204 202 196 199 205 211 226 266 341 350 353 357 359 355 357 356 355 358 1 0 356 352 347 343 337 313 286 280 296 300 312 308 294 272 261 250 268 273 260 253 259 249 241
209 202 204 209 218 228 250 286 318 333 343 346 342 343 348 347 350 354 355 353 353 355 350 350 347 336 315 285 266 281 297 296 292 288 280 272 266 267 252 254 258 244 236
214 211 213 219 224 236 251 272 295 314 327 330 331 336 340 341 348 352 353 353 354 358 356 352 350 345 340 322 297 269 269 269 269 277 281 281 268 262 254 249 255 242 242
221 222 221 225 230 240 257 273 290 304 315 322 327 332 335 341 351 356 357 354 353 354 353 350 347 342 338 331 320 300 274 265 265 267 275 275 275 265 258 246 243 248 240
222 225 227 228 236 247 260 273 287 296 304 315 319 325 331 336 345 351 352 355 354 350 349 345 344 340 336 334 328 322 310 282 270 266 272 271 274 274 257 246 241 248 238
220 224 227 231 240 248 256 268 279 290 296 303 311 320 328 336 336 339 344 347 348 346 345 343 344 342 338 332 332 321 315 304 289 269 268 272 272 265 262 251 245 246 245
224 226 226 231 236 243 253 265 274 279 286 298 310 322 334 334 331 336 340 344 343 340 340 338 338 340 339 338 330 325 318 310 300 284 274 270 268 271 259 263 251 236 243
224 223 226 231 238 244 254 263 269 275 283 296 308 320 329 328 339 341 347 343 337 333 333 332 336 336 336 338 335 327 323 328 310 302 276 280 269 266 268 255 255 256 235
227 225 223 226 235 245 252 260 266 272 283 298 310 318 315 327 339 342 335 336 329 328 331 331 334 329 330 331 330 325 327 318 325 303 296 289 277 272 260 259 252 248 244
228 227 227 229 236 244 249 256 262 269 281 296 301 297 304 312 316 328 330 318 322 323 324 324 324 326 320 322 320 315 316 308 312 314 311 302 302 290 278 264 253 246 240
230 231 227 226 234 242 250 255 260 266 281 291 296 296 291 293 308 309 307 308 310 310 310 313 312 313 308 311 315 311 310 301 305 309 308 304 306 302 292 271 256 247 242
228 231 226 224 233 241 246 254 261 271 280 293 298 292 287 296 302 301 307 306 310 310 306 304 307 303 300 304 304 306 308 300 302 296 298 306 306 297 292 284 277 252 243
226 227 226 225 230 235 240 249 259 267 281 292 294 286 287 291 296 302 310 310 308 305 309 307 300 300 300 300 301 303 300 298 298 290 289 295 300 298 292 289 283 271 248